Tracking 29892 objects as of 21-Nov-2024
HD Live streaming from Space Station
objects crossing your sky now

STARLINK-11312

Track STARLINK-11312 now!
10-day predictions
STARLINK-11312 is classified as:


NORAD ID: 61689
Int'l Code: 2024-195C
Perigee: 345.4 km
Apogee: 348.2 km
Inclination: 53.2 °
Period: 91.3 minutes
Semi major axis: 6717 km
RCS: Unknown
Launch date: October 30, 2024
Source: United States (US)
Launch site: AIR FORCE WESTERN TEST RANGE (AFWTR)
Your satellite tracking list
Your tracking list is empty




NASA's NSSDC Master Catalog

Two Line Element Set (TLE):
1 61689U 24195C   24326.09794915  .00012061  00000-0  77469-4 0  9999
2 61689  53.1563 202.1621 0002079  49.1185 311.0016 15.76762956  4623
Source of the keplerian elements: AFSPC